Weather History for KFYJ - October, 2012

Change the Weather History Date:

Friday, October 26, 2012

  Actual Average (KRIC) Record (KRIC)
Temperature  
Mean Temperature 68 °F 56 °F  
Max Temperature 71 °F 68 °F 83 °F (1939)
Min Temperature 64 °F 45 °F 28 °F (1933)
Degree Days  
Heating Degree Days 0 9  
Month to date heating degree days 156  
Since 1 July heating degree days 185  
Cooling Degree Days 2 1  
Month to date cooling degree days 39  
Year to date cooling degree days 1543  
Growing Degree Days 18 (Base 50)    
Moisture  
Dew Point 65 °F    
Average Humidity 93    
Maximum Humidity 100    
Minimum Humidity 80    
Precipitation  
Precipitation 0.00 in 0.10 in 4.35 in (1977)
Month to date precipitation 2.47  
Year to date precipitation 36.59  
Snow  
Snow 0.00 in 0.00 in 0.00 in (2002)
Month to date snowfall 0.0  
Since 1 July snowfall 0.0  
Snow Depth -    
Sea Level Pressure  
Sea Level Pressure 30.11 in    
Wind  
Wind Speed 5 mph (NE)    
Max Wind Speed 12 mph    
Max Gust Speed 16 mph    
Visibility 9 miles    
Events      
T = Trace of Precipitation, MM = Missing Value Source: NWS Daily Summary

Daily Weather History Graph

Daily Weather History Graph

Search for Another Location

Airport or City:

Trip Planner

Search our weather history database for the weather conditions in past years. The results will help you decide how hot, cold, wet, or windy it might be!

Date:

Astronomy

Oct. 26, 2012 Rise Set
Actual Time 7:26 AM EDT 6:15 PM EDT
Civil Twilight 6:59 AM EDT 6:41 PM EDT
Nautical Twilight 6:28 AM EDT 7:12 PM EDT
Astronomical Twilight 5:58 AM EDT 7:42 PM EDT
Moon 4:27 PM EDT (10/26) 4:23 AM EDT (10/26)
Length of Visible Light 11h 42m
Length of Day
10h 48m
Waxing Gibbous, 91% of the Moon is Illuminated
Oct 26
Waxing Gibbous
Oct 29
Full
Nov 6
Last Quarter
Nov 13
New
Nov 20
First Quarter

Hourly Weather History & Observations

Time (EDT) Temp. Dew Point Humidity Pressure Visibility Wind Dir Wind Speed Gust Speed Precip Events Conditions
12:15 AM 65.1 °F 65.1 °F 100% 30.17 in 10.0 mi ENE 6.9 mph - N/A   Overcast
12:35 AM 64.9 °F 64.9 °F 100% 30.16 in 10.0 mi ENE 5.8 mph - N/A   Overcast
12:55 AM 64.9 °F 64.9 °F 100% 30.16 in 7.0 mi East 6.9 mph - N/A   Overcast
1:15 AM 64.9 °F 64.9 °F 100% 30.16 in 7.0 mi East 3.5 mph - N/A   Overcast
1:35 AM 64.9 °F 64.9 °F 100% 30.16 in 10.0 mi East 3.5 mph - N/A   Overcast
1:55 AM 64.9 °F 64.9 °F 100% 30.15 in 7.0 mi East 4.6 mph - N/A   Overcast
2:35 AM 65.3 °F 65.3 °F 100% 30.15 in 7.0 mi Calm Calm - N/A   Overcast
2:55 AM 64.9 °F 64.9 °F 100% 30.15 in 5.0 mi Calm Calm - N/A   Overcast
3:15 AM 64.8 °F 64.8 °F 100% 30.15 in 5.0 mi Calm Calm - N/A   Overcast
3:35 AM 64.9 °F 64.9 °F 100% 30.15 in 5.0 mi Calm Calm - N/A   Overcast
3:55 AM 64.9 °F 64.9 °F 100% 30.14 in 7.0 mi Calm Calm - N/A   Overcast
4:15 AM 64.9 °F 64.9 °F 100% 30.14 in 7.0 mi Calm Calm - N/A   Overcast
4:35 AM 65.1 °F 65.1 °F 100% 30.14 in 7.0 mi Calm Calm - N/A   Overcast
4:55 AM 65.3 °F 65.3 °F 100% 30.13 in 7.0 mi Calm Calm - N/A   Overcast
5:15 AM 65.3 °F 65.3 °F 100% 30.14 in 7.0 mi Calm Calm - N/A   Overcast
5:35 AM 65.5 °F 65.5 °F 100% 30.14 in 7.0 mi NNE 3.5 mph - N/A   Overcast
5:55 AM 65.5 °F 65.5 °F 100% 30.14 in 7.0 mi NE 3.5 mph - N/A   Overcast
6:15 AM 65.5 °F 65.5 °F 100% 30.14 in 7.0 mi Calm Calm - N/A   Overcast
6:35 AM 65.7 °F 65.7 °F 100% 30.15 in 7.0 mi Calm Calm - N/A   Overcast
6:55 AM 65.5 °F 65.5 °F 100% 30.14 in 7.0 mi NNE 3.5 mph - N/A   Overcast
7:15 AM 65.5 °F 65.5 °F 100% 30.14 in 10.0 mi NE 4.6 mph - N/A   Overcast
7:35 AM 65.5 °F 65.5 °F 100% 30.14 in 10.0 mi North 3.5 mph - N/A   Overcast
7:55 AM 65.5 °F 65.5 °F 100% 30.14 in 10.0 mi Calm Calm - N/A   Overcast
8:35 AM 65.5 °F 65.5 °F 100% 30.16 in 7.0 mi North 5.8 mph - N/A   Overcast
8:55 AM 65.7 °F 65.7 °F 100% 30.16 in 7.0 mi NNE 4.6 mph - N/A   Overcast
9:35 AM 65.5 °F 65.5 °F 100% 30.18 in 10.0 mi NE 6.9 mph - N/A   Overcast
9:55 AM 65.3 °F 65.3 °F 100% 30.18 in 10.0 mi NNE 3.5 mph - N/A   Overcast
10:15 AM 65.3 °F 65.3 °F 100% 30.19 in 10.0 mi NE 5.8 mph - N/A   Overcast
11:15 AM 66.9 °F 65.3 °F 95% 30.17 in 10.0 mi NNE 4.6 mph - N/A   Overcast
11:35 AM 67.6 °F 64.8 °F 90% 30.16 in 10.0 mi NNE 5.8 mph - N/A   Overcast
11:55 AM 68.5 °F 64.9 °F 88% 30.16 in 10.0 mi NE 8.1 mph - N/A   Overcast
12:15 PM 69.3 °F 64.8 °F 86% 30.16 in 10.0 mi NE 8.1 mph 16.1 mph N/A   Overcast
12:35 PM 70.5 °F 65.1 °F 83% 30.15 in 10.0 mi NNE 9.2 mph - N/A   Overcast
1:15 PM 69.3 °F 64.9 °F 86% 30.13 in 10.0 mi ENE 10.4 mph - N/A   Overcast
1:35 PM 68.9 °F 65.3 °F 88% 30.12 in 10.0 mi ENE 8.1 mph - N/A   Overcast
2:15 PM 71.2 °F 65.8 °F 83% 30.09 in 10.0 mi East 10.4 mph - N/A   Scattered Clouds
2:35 PM 71.2 °F 65.7 °F 82% 30.08 in 10.0 mi ENE 8.1 mph - N/A   Clear
2:55 PM 71.8 °F 65.8 °F 81% 30.08 in 10.0 mi ENE 9.2 mph - N/A   Clear
3:15 PM 71.6 °F 65.7 °F 81% 30.07 in 10.0 mi ENE 11.5 mph - N/A   Clear
3:35 PM 71.8 °F 65.8 °F 81% 30.06 in 10.0 mi ENE 9.2 mph - N/A   Scattered Clouds
3:55 PM 71.8 °F 65.7 °F 81% 30.06 in 10.0 mi East 10.4 mph - N/A   Mostly Cloudy
4:15 PM 71.6 °F 65.3 °F 80% 30.06 in 10.0 mi ENE 10.4 mph - N/A   Overcast
4:35 PM 70.9 °F 65.1 °F 82% 30.06 in 10.0 mi ENE 6.9 mph - N/A   Overcast
4:55 PM 70.7 °F 65.3 °F 83% 30.05 in 10.0 mi NE 4.6 mph - N/A   Overcast
5:15 PM 70.0 °F 64.8 °F 83% 30.05 in 10.0 mi NE 5.8 mph - N/A   Overcast
5:55 PM 69.3 °F 64.8 °F 86% 30.05 in 10.0 mi NE 4.6 mph - N/A   Overcast
6:15 PM 68.9 °F 64.9 °F 87% 30.06 in 10.0 mi NE 5.8 mph - N/A   Overcast
6:35 PM 68.5 °F 64.9 °F 88% 30.06 in 10.0 mi ENE 5.8 mph - N/A   Overcast
6:55 PM 68.2 °F 65.3 °F 90% 30.06 in 10.0 mi NE 6.9 mph - N/A   Overcast
7:15 PM 68.0 °F 65.3 °F 91% 30.06 in 10.0 mi NE 8.1 mph - N/A   Overcast
7:35 PM 67.6 °F 64.9 °F 91% 30.06 in 10.0 mi NE 5.8 mph - N/A   Overcast
7:55 PM 67.3 °F 64.6 °F 91% 30.06 in 10.0 mi NE 6.9 mph - N/A   Overcast
8:15 PM 67.1 °F 64.4 °F 91% 30.06 in 10.0 mi NE 5.8 mph - N/A   Overcast
8:35 PM 66.7 °F 64.0 °F 91% 30.06 in 10.0 mi NE 4.6 mph - N/A   Mostly Cloudy
8:55 PM 66.6 °F 63.9 °F 91% 30.06 in 10.0 mi NE 6.9 mph - N/A   Scattered Clouds
9:15 PM 66.2 °F 63.5 °F 91% 30.06 in 10.0 mi NNE 5.8 mph - N/A   Scattered Clouds
9:35 PM 66.2 °F 63.5 °F 91% 30.05 in 10.0 mi NNE 6.9 mph - N/A   Overcast
9:55 PM 66.2 °F 63.3 °F 90% 30.05 in 10.0 mi NE 6.9 mph - N/A   Mostly Cloudy
10:15 PM 65.8 °F 63.1 °F 91% 30.05 in 10.0 mi NNE 8.1 mph - N/A   Scattered Clouds
10:35 PM 65.5 °F 63.0 °F 92% 30.04 in 10.0 mi NNE 6.9 mph - N/A   Clear
10:55 PM 65.3 °F 62.8 °F 92% 30.03 in 10.0 mi NE 6.9 mph - N/A   Scattered Clouds
11:15 PM 64.8 °F 62.6 °F 93% 30.03 in 10.0 mi NE 6.9 mph - N/A   Scattered Clouds
11:35 PM 64.6 °F 62.6 °F 93% 30.02 in 10.0 mi NE 6.9 mph - N/A   Clear
11:55 PM 64.2 °F 62.6 °F 94% 30.02 in 10.0 mi NE 6.9 mph - N/A   Clear